Погода в Накхонпханоме

Таиланд     17°24′11″N   104°47′06″E
темп.,
°C
ветер,
м/с
пор.,
м/с
влажн.,
%
обл.,
%
осадки,
мм/ч
давл.,
гПа
погр.,
м
9 декабря, чт
чт901:00+17св118847 0.0 101717
04:00+17св1190100 0.0 101721
07:00+18св128434 0.0 101867
10:00+28св484989 0.0 10191571
13:00+27всв4851100 0.0 10171852
16:00+25св465799 0.0 1016949
19:00+20всв2675100 0.0 1018203
22:00+17всв2386100 0.0 101978
10 декабря, пт
пт1001:00+16св119386 0.0 101823
04:00+16св119583 0.0 101714
07:00+17св11909 0.0 101849
10:00+27всв24514 0.0 10181162
13:00+31всв333768 0.0 10142336
16:00+28вюв474877 0.0 10121001
19:00+23в39635 0.0 1015502
22:00+18всв11860 0.0 101723
11 декабря, сб
сб1101:00+16всв11950 0.0 101616
04:00+15св11964 0.0 101614
07:00+16св11900 0.0 101736
10:00+27св24445 0.0 10181169
13:00+32вюв24300 0.0 10142414
16:00+30вюв453792 0.0 10121914
19:00+23всв410595 0.0 1016526
22:00+19всв22781 0.0 101753
12 декабря, вс
вс1201:00+16св11944 0.0 101719
04:00+15всв119553 0.0 101613
07:00+17св12898 0.0 101851
10:00+27св47480 0.0 10181437
13:00+30св563991 0.0 10142345
16:00+26св5852100 0.0 10141173
19:00+21св41158100 0.0 1017629
22:00+18всв2570100 0.0 1018129
13 декабря, пн
пн1301:00+16св238437 0.0 101766
04:00+15всв23877 0.0 101654
07:00+16св2779100 0.0 1018201
10:00+24св4749100 0.0 10181260
13:00+29св4636100 0.0 10141911
16:00+27св454171 0.0 10131671
19:00+21всв3105867 0.0 1015474
22:00+16всв2382100 0.0 101667